Time,TemperatureF,DewpointF,PressureIn,WindDirection,WindDirectionDegrees,WindSpeedMPH,WindSpeedGustMPH,Humidity,HourlyPrecipIn,Conditions,Clouds,dailyrainin,SoftwareType,DateUTC
2013-07-25 00:02:00,83.7,68.7,29.86,East,98,0.0,5.0,61,0.00,,,0.00,meteohub,2013-07-25 05:02:00,
2013-07-25 00:07:00,83.7,68.7,29.86,ESE,111,0.0,5.0,61,0.00,,,0.00,meteohub,2013-07-25 05:07:00,
2013-07-25 00:12:00,83.5,68.5,29.87,ESE,111,0.0,6.0,61,0.00,,,0.00,meteohub,2013-07-25 05:12:00,
2013-07-25 00:17:00,83.5,68.5,29.87,ESE,121,0.0,6.0,61,0.00,,,0.00,meteohub,2013-07-25 05:17:00,
2013-07-25 00:22:00,83.3,68.9,29.86,ESE,117,0.0,6.0,62,0.00,,,0.00,meteohub,2013-07-25 05:22:00,
2013-07-25 00:27:00,83.1,68.7,29.86,East,82,0.0,6.0,62,0.00,,,0.00,meteohub,2013-07-25 05:27:00,
2013-07-25 00:32:00,82.9,69.1,29.86,SE,144,0.0,3.0,63,0.00,,,0.00,meteohub,2013-07-25 05:32:00,
2013-07-25 00:37:00,82.8,68.9,29.87,ESE,107,0.0,3.0,63,0.00,,,0.00,meteohub,2013-07-25 05:37:00,
2013-07-25 00:42:00,82.6,68.7,29.87,ESE,105,0.0,3.0,63,0.00,,,0.00,meteohub,2013-07-25 05:42:00,
2013-07-25 00:47:00,82.2,68.9,29.87,ESE,105,0.0,3.0,64,0.00,,,0.00,meteohub,2013-07-25 05:47:00,
2013-07-25 00:52:00,82.0,68.7,29.86,ESE,103,0.0,2.0,64,0.00,,,0.00,meteohub,2013-07-25 05:52:00,
2013-07-25 00:57:00,82.0,68.7,29.87,ESE,103,0.0,2.0,64,0.00,,,0.00,meteohub,2013-07-25 05:57:00,
2013-07-25 01:02:00,81.9,68.5,29.86,ESE,122,0.0,2.0,64,0.00,,,0.00,meteohub,2013-07-25 06:02:00,
2013-07-25 01:07:00,81.9,68.5,29.87,ESE,116,0.0,2.0,64,0.00,,,0.00,meteohub,2013-07-25 06:07:00,
2013-07-25 01:12:00,81.7,68.7,29.87,East,96,0.0,6.0,65,0.00,,,0.00,meteohub,2013-07-25 06:12:00,
2013-07-25 01:17:00,81.5,68.5,29.87,East,94,0.0,6.0,65,0.00,,,0.00,meteohub,2013-07-25 06:17:00,
2013-07-25 01:23:00,81.3,68.4,29.87,East,93,0.0,0.0,65,0.00,,,0.00,meteohub,2013-07-25 06:23:00,
2013-07-25 01:28:00,81.1,68.2,29.87,ESE,120,0.0,0.0,65,0.00,,,0.00,meteohub,2013-07-25 06:28:00,
2013-07-25 01:33:00,81.1,68.2,29.87,ESE,119,0.0,2.0,65,0.00,,,0.00,meteohub,2013-07-25 06:33:00,
2013-07-25 01:38:00,81.1,68.7,29.87,ESE,103,0.0,2.0,66,0.00,,,0.00,meteohub,2013-07-25 06:38:00,
2013-07-25 01:43:00,81.0,68.5,29.87,ESE,119,0.0,2.0,66,0.00,,,0.00,meteohub,2013-07-25 06:43:00,
2013-07-25 01:48:00,81.0,68.5,29.87,ESE,119,0.0,4.0,66,0.00,,,0.00,meteohub,2013-07-25 06:48:00,
2013-07-25 01:53:00,80.8,68.4,29.87,ESE,118,0.0,4.0,66,0.00,,,0.00,meteohub,2013-07-25 06:53:00,
2013-07-25 01:58:00,80.8,68.4,29.87,ESE,111,0.0,4.0,66,0.00,,,0.00,meteohub,2013-07-25 06:58:00,
2013-07-25 02:03:00,80.6,68.2,29.87,ESE,121,0.0,4.0,66,0.00,,,0.00,meteohub,2013-07-25 07:03:00,
2013-07-25 02:08:00,80.6,68.5,29.86,ESE,121,0.0,4.0,67,0.00,,,0.00,meteohub,2013-07-25 07:08:00,
2013-07-25 02:13:00,80.4,68.5,29.86,SE,138,0.0,5.0,67,0.00,,,0.00,meteohub,2013-07-25 07:13:00,
2013-07-25 02:18:00,80.2,68.4,29.86,ESE,103,0.0,5.0,67,0.00,,,0.00,meteohub,2013-07-25 07:18:00,
2013-07-25 02:23:00,80.2,68.7,29.86,SSE,157,0.0,1.0,68,0.00,,,0.00,meteohub,2013-07-25 07:23:00,
2013-07-25 02:28:00,80.1,68.5,29.86,SSE,157,0.0,1.0,68,0.00,,,0.00,meteohub,2013-07-25 07:28:00,
2013-07-25 02:33:00,79.9,68.4,29.87,SE,143,0.0,0.0,68,0.00,,,0.00,meteohub,2013-07-25 07:33:00,
2013-07-25 02:38:00,79.9,68.7,29.87,SE,143,0.0,0.0,69,0.00,,,0.00,meteohub,2013-07-25 07:38:00,
2013-07-25 02:43:00,79.7,68.5,29.87,SE,143,0.0,0.0,69,0.00,,,0.00,meteohub,2013-07-25 07:43:00,
2013-07-25 02:48:00,79.5,68.5,29.87,SE,143,0.0,0.0,69,0.00,,,0.00,meteohub,2013-07-25 07:48:00,
2013-07-25 02:53:00,79.5,68.5,29.87,ESE,107,0.0,0.0,69,0.00,,,0.00,meteohub,2013-07-25 07:53:00,
2013-07-25 02:58:00,79.3,68.4,29.87,ESE,107,0.0,0.0,69,0.00,,,0.00,meteohub,2013-07-25 07:58:00,
2013-07-25 03:03:00,79.3,68.7,29.87,ESE,107,0.0,0.0,70,0.00,,,0.00,meteohub,2013-07-25 08:03:00,
2013-07-25 03:08:00,79.2,68.5,29.87,ESE,107,0.0,0.0,70,0.00,,,0.00,meteohub,2013-07-25 08:08:00,
2013-07-25 03:13:00,79.2,68.5,29.87,ESE,107,0.0,0.0,70,0.00,,,0.00,meteohub,2013-07-25 08:13:00,
2013-07-25 03:18:00,79.0,68.4,29.87,ESE,107,0.0,0.0,70,0.00,,,0.00,meteohub,2013-07-25 08:18:00,
2013-07-25 03:23:00,79.0,68.4,29.87,ESE,107,0.0,0.0,70,0.00,,,0.00,meteohub,2013-07-25 08:23:00,
2013-07-25 03:28:00,79.0,68.4,29.87,ESE,107,0.0,0.0,70,0.00,,,0.00,meteohub,2013-07-25 08:28:00,
2013-07-25 03:33:00,78.8,68.5,29.87,ESE,107,0.0,0.0,71,0.00,,,0.00,meteohub,2013-07-25 08:33:00,
2013-07-25 03:38:00,78.6,68.4,29.87,ESE,107,0.0,2.0,71,0.00,,,0.00,meteohub,2013-07-25 08:38:00,
2013-07-25 03:43:00,78.6,68.4,29.87,ESE,107,0.0,2.0,71,0.00,,,0.00,meteohub,2013-07-25 08:43:00,
2013-07-25 03:48:00,78.6,68.4,29.87,ESE,107,0.0,0.0,71,0.00,,,0.00,meteohub,2013-07-25 08:48:00,
2013-07-25 03:53:00,78.4,68.2,29.88,ESE,107,0.0,0.0,71,0.00,,,0.00,meteohub,2013-07-25 08:53:00,
2013-07-25 03:58:00,78.4,68.7,29.88,ESE,107,0.0,0.0,72,0.00,,,0.00,meteohub,2013-07-25 08:58:00,
2013-07-25 04:03:00,78.4,68.7,29.88,ESE,107,0.0,0.0,72,0.00,,,0.00,meteohub,2013-07-25 09:03:00,
2013-07-25 04:09:00,78.4,68.7,29.88,ESE,115,0.0,0.0,72,0.00,,,0.00,meteohub,2013-07-25 09:09:00,
2013-07-25 04:13:00,78.4,68.7,29.88,ESE,115,0.0,1.0,72,0.00,,,0.00,meteohub,2013-07-25 09:13:00,
2013-07-25 04:19:00,78.4,68.7,29.88,SSE,153,0.0,1.0,72,0.00,,,0.00,meteohub,2013-07-25 09:19:00,
2013-07-25 04:24:00,78.3,68.5,29.88,SSE,150,0.0,1.0,72,0.00,,,0.00,meteohub,2013-07-25 09:24:00,
2013-07-25 04:29:00,78.3,68.5,29.88,SSE,147,0.0,0.0,72,0.00,,,0.00,meteohub,2013-07-25 09:29:00,
2013-07-25 04:34:00,78.3,68.5,29.88,East,99,0.0,0.0,72,0.00,,,0.00,meteohub,2013-07-25 09:34:00,
2013-07-25 04:39:00,78.3,68.9,29.88,ESE,119,0.0,2.0,73,0.00,,,0.00,meteohub,2013-07-25 09:39:00,
2013-07-25 04:44:00,78.1,68.7,29.88,ESE,118,0.0,2.0,73,0.00,,,0.00,meteohub,2013-07-25 09:44:00,
2013-07-25 04:49:00,78.1,68.7,29.88,ESE,118,0.0,2.0,73,0.00,,,0.00,meteohub,2013-07-25 09:49:00,
2013-07-25 04:54:00,77.7,68.4,29.89,ESE,118,0.0,0.0,73,0.00,,,0.00,meteohub,2013-07-25 09:54:00,
2013-07-25 04:59:00,77.7,68.7,29.89,ESE,118,0.0,0.0,74,0.00,,,0.00,meteohub,2013-07-25 09:59:00,
2013-07-25 05:04:00,77.7,68.7,29.89,ESE,118,0.0,0.0,74,0.00,,,0.00,meteohub,2013-07-25 10:04:00,
2013-07-25 05:09:00,77.5,68.5,29.89,ESE,118,0.0,0.0,74,0.00,,,0.00,meteohub,2013-07-25 10:09:00,
2013-07-25 05:13:00,77.5,68.5,29.89,ESE,118,0.0,0.0,74,0.00,,,0.00,meteohub,2013-07-25 10:13:00,
2013-07-25 05:17:00,77.4,68.4,29.89,ESE,118,0.0,0.0,74,0.00,,,0.00,meteohub,2013-07-25 10:17:00,
2013-07-25 05:22:00,77.4,68.4,29.89,ESE,118,0.0,0.0,74,0.00,,,0.00,meteohub,2013-07-25 10:22:00,
2013-07-25 05:27:00,77.4,68.9,29.89,ESE,118,0.0,0.0,75,0.00,,,0.00,meteohub,2013-07-25 10:27:00,
2013-07-25 05:32:00,77.4,68.9,29.89,ESE,118,0.0,0.0,75,0.00,,,0.00,meteohub,2013-07-25 10:32:00,
2013-07-25 05:37:00,77.2,68.7,29.90,ESE,118,0.0,0.0,75,0.00,,,0.00,meteohub,2013-07-25 10:37:00,
2013-07-25 05:42:00,77.2,68.7,29.89,ESE,118,0.0,0.0,75,0.00,,,0.00,meteohub,2013-07-25 10:42:00,
2013-07-25 05:47:00,77.0,68.9,29.90,ESE,118,0.0,0.0,76,0.00,,,0.00,meteohub,2013-07-25 10:47:00,
2013-07-25 05:52:00,76.8,68.7,29.89,ESE,119,0.0,0.0,76,0.00,,,0.00,meteohub,2013-07-25 10:52:00,
2013-07-25 05:57:00,76.8,68.7,29.89,ESE,118,0.0,0.0,76,0.00,,,0.00,meteohub,2013-07-25 10:57:00,
2013-07-25 06:02:00,76.6,68.5,29.90,ESE,118,0.0,0.0,76,0.00,,,0.00,meteohub,2013-07-25 11:02:00,
2013-07-25 06:07:00,76.6,68.5,29.90,ESE,118,0.0,0.0,76,0.00,,,0.00,meteohub,2013-07-25 11:07:00,
2013-07-25 06:12:00,76.5,68.7,29.90,ESE,118,0.0,0.0,77,0.00,,,0.00,meteohub,2013-07-25 11:12:00,
2013-07-25 06:17:00,76.5,68.7,29.90,ESE,118,0.0,0.0,77,0.00,,,0.00,meteohub,2013-07-25 11:17:00,
2013-07-25 06:22:00,76.5,68.7,29.90,ESE,118,0.0,0.0,77,0.00,,,0.00,meteohub,2013-07-25 11:22:00,
2013-07-25 06:27:00,76.5,68.7,29.91,ESE,118,0.0,0.0,77,0.00,,,0.00,meteohub,2013-07-25 11:27:00,
2013-07-25 06:32:00,76.3,68.5,29.90,ESE,118,0.0,0.0,77,0.00,,,0.00,meteohub,2013-07-25 11:32:00,
2013-07-25 06:38:00,76.3,68.5,29.91,ESE,118,0.0,0.0,77,0.00,,,0.00,meteohub,2013-07-25 11:38:00,
2013-07-25 06:43:00,76.1,68.4,29.91,ESE,118,0.0,0.0,77,0.00,,,0.00,meteohub,2013-07-25 11:43:00,
2013-07-25 06:48:00,75.9,68.5,29.91,ESE,118,0.0,0.0,78,0.00,,,0.00,meteohub,2013-07-25 11:48:00,
2013-07-25 06:53:00,75.9,68.5,29.91,ESE,118,0.0,0.0,78,0.00,,,0.00,meteohub,2013-07-25 11:53:00,
2013-07-25 06:58:00,75.9,68.5,29.91,ESE,118,0.0,0.0,78,0.00,,,0.00,meteohub,2013-07-25 11:58:00,
2013-07-25 07:03:00,76.1,68.4,29.91,ESE,118,0.0,0.0,77,0.00,,,0.00,meteohub,2013-07-25 12:03:00,
2013-07-25 07:08:00,76.1,68.4,29.91,ESE,119,0.0,0.0,77,0.00,,,0.00,meteohub,2013-07-25 12:08:00,
2013-07-25 07:13:00,76.1,68.7,29.91,ESE,118,0.0,0.0,78,0.00,,,0.00,meteohub,2013-07-25 12:13:00,
2013-07-25 07:18:00,76.3,68.9,29.91,ESE,118,0.0,0.0,78,0.00,,,0.00,meteohub,2013-07-25 12:18:00,
2013-07-25 07:23:00,76.1,68.7,29.91,ESE,118,0.0,0.0,78,0.00,,,0.00,meteohub,2013-07-25 12:23:00,
2013-07-25 07:28:00,76.3,68.5,29.92,ESE,118,0.0,0.0,77,0.00,,,0.00,meteohub,2013-07-25 12:28:00,
2013-07-25 07:33:00,76.5,68.7,29.92,ESE,118,0.0,0.0,77,0.00,,,0.00,meteohub,2013-07-25 12:33:00,
2013-07-25 07:38:00,76.6,68.5,29.92,ESE,119,0.0,0.0,76,0.00,,,0.00,meteohub,2013-07-25 12:38:00,
2013-07-25 07:43:00,76.8,68.7,29.92,ESE,118,0.0,0.0,76,0.00,,,0.00,meteohub,2013-07-25 12:43:00,
2013-07-25 07:48:00,77.2,68.7,29.92,ESE,119,0.0,0.0,75,0.00,,,0.00,meteohub,2013-07-25 12:48:00,
2013-07-25 07:53:00,77.5,68.9,29.92,ESE,119,0.0,0.0,75,0.00,,,0.00,meteohub,2013-07-25 12:53:00,
2013-07-25 07:59:00,78.1,69.1,29.92,ESE,118,0.0,0.0,74,0.00,,,0.00,meteohub,2013-07-25 12:59:00,
2013-07-25 08:04:00,78.4,69.4,29.91,SE,138,0.0,1.0,74,0.00,,,0.00,meteohub,2013-07-25 13:04:00,
2013-07-25 08:09:00,78.8,69.4,29.91,SE,136,0.0,1.0,73,0.00,,,0.00,meteohub,2013-07-25 13:09:00,
2013-07-25 08:14:00,79.2,69.3,29.92,South,178,0.0,1.0,72,0.00,,,0.00,meteohub,2013-07-25 13:14:00,
2013-07-25 08:19:00,79.3,69.4,29.91,SE,138,0.0,1.0,72,0.00,,,0.00,meteohub,2013-07-25 13:19:00,
2013-07-25 08:24:00,79.7,69.4,29.92,SE,138,0.0,5.0,71,0.00,,,0.00,meteohub,2013-07-25 13:24:00,
2013-07-25 08:29:00,80.2,69.6,29.92,SE,138,0.0,5.0,70,0.00,,,0.00,meteohub,2013-07-25 13:29:00,
2013-07-25 08:34:00,80.6,69.4,29.92,SE,138,4.0,5.0,69,0.00,,,0.00,meteohub,2013-07-25 13:34:00,
2013-07-25 08:39:00,81.1,70.0,29.92,SE,138,0.0,5.0,69,0.00,,,0.00,meteohub,2013-07-25 13:39:00,
2013-07-25 08:44:00,81.7,70.2,29.92,SSE,161,5.0,5.0,68,0.00,,,0.00,meteohub,2013-07-25 13:44:00,
2013-07-25 08:49:00,82.0,69.6,29.92,SSE,153,0.0,5.0,66,0.00,,,0.00,meteohub,2013-07-25 13:49:00,
2013-07-25 08:54:00,82.2,69.3,29.92,South,175,0.0,5.0,65,0.00,,,0.00,meteohub,2013-07-25 13:54:00,
2013-07-25 08:59:00,82.6,69.6,29.92,South,171,0.0,5.0,65,0.00,,,0.00,meteohub,2013-07-25 13:59:00,
2013-07-25 09:04:00,82.9,70.0,29.92,South,171,0.0,5.0,65,0.00,,,0.00,meteohub,2013-07-25 14:04:00,
2013-07-25 09:09:00,83.5,70.5,29.93,SW,220,0.0,5.0,65,0.00,,,0.00,meteohub,2013-07-25 14:09:00,
2013-07-25 09:14:00,83.8,70.3,29.93,SW,217,0.0,5.0,64,0.00,,,0.00,meteohub,2013-07-25 14:14:00,
2013-07-25 09:19:00,84.2,70.2,29.92,SSW,213,0.0,5.0,63,0.00,,,0.00,meteohub,2013-07-25 14:19:00,
2013-07-25 09:24:00,84.6,70.5,29.92,SW,229,0.0,6.0,63,0.00,,,0.00,meteohub,2013-07-25 14:24:00,
2013-07-25 09:29:00,84.6,70.2,29.93,WSW,243,0.0,6.0,62,0.00,,,0.00,meteohub,2013-07-25 14:29:00,
2013-07-25 09:34:00,84.4,70.3,29.92,SW,230,4.0,6.0,63,0.00,,,0.00,meteohub,2013-07-25 14:34:00,
2013-07-25 09:39:00,84.2,70.2,29.93,SW,233,0.0,6.0,63,0.00,,,0.00,meteohub,2013-07-25 14:39:00,
2013-07-25 09:44:00,84.4,70.3,29.93,SW,232,5.0,10.0,63,0.00,,,0.00,meteohub,2013-07-25 14:44:00,
2013-07-25 09:50:00,84.6,70.2,29.93,SSW,202,3.0,10.0,62,0.00,,,0.00,meteohub,2013-07-25 14:50:00,
2013-07-25 09:55:00,84.6,70.2,29.93,WSW,240,0.0,10.0,62,0.00,,,0.00,meteohub,2013-07-25 14:55:00,
2013-07-25 10:00:00,84.6,70.2,29.93,SW,236,0.0,10.0,62,0.00,,,0.00,meteohub,2013-07-25 15:00:00,
2013-07-25 10:05:00,84.7,69.8,29.93,SW,228,3.0,10.0,61,0.00,,,0.00,meteohub,2013-07-25 15:05:00,
2013-07-25 10:10:00,84.9,70.0,29.93,SW,231,1.0,10.0,61,0.00,,,0.00,meteohub,2013-07-25 15:10:00,
2013-07-25 10:15:00,85.5,69.4,29.93,SW,226,0.0,10.0,59,0.00,,,0.00,meteohub,2013-07-25 15:15:00,
2013-07-25 10:20:00,85.8,69.8,29.93,WSW,255,8.0,11.0,59,0.00,,,0.00,meteohub,2013-07-25 15:20:00,
2013-07-25 10:25:00,86.2,69.6,29.93,WSW,242,5.0,11.0,58,0.00,,,0.00,meteohub,2013-07-25 15:25:00,
2013-07-25 10:30:00,86.4,69.8,29.93,WSW,254,7.0,11.0,58,0.00,,,0.00,meteohub,2013-07-25 15:30:00,
2013-07-25 10:35:00,86.7,69.6,29.93,SSW,213,9.0,11.0,57,0.00,,,0.00,meteohub,2013-07-25 15:35:00,
2013-07-25 10:40:00,86.5,69.4,29.94,SW,234,4.0,11.0,57,0.00,,,0.00,meteohub,2013-07-25 15:40:00,
2013-07-25 10:45:00,86.5,70.0,29.94,WSW,252,4.0,11.0,58,0.00,,,0.00,meteohub,2013-07-25 15:45:00,
2013-07-25 10:51:00,87.1,70.0,29.94,West,260,5.0,11.0,57,0.00,,,0.00,meteohub,2013-07-25 15:51:00,
2013-07-25 10:56:00,87.3,69.1,29.94,SW,226,0.0,11.0,55,0.00,,,0.00,meteohub,2013-07-25 15:56:00,
2013-07-25 11:01:00,87.3,69.6,29.94,WSW,246,4.0,12.0,56,0.00,,,0.00,meteohub,2013-07-25 16:01:00,
2013-07-25 11:06:00,87.6,69.4,29.94,West,262,4.0,12.0,55,0.00,,,0.00,meteohub,2013-07-25 16:06:00,
2013-07-25 11:11:00,88.2,70.0,29.95,West,262,3.0,12.0,55,0.00,,,0.00,meteohub,2013-07-25 16:11:00,
2013-07-25 11:16:00,88.3,69.6,29.95,SW,219,0.0,12.0,54,0.00,,,0.00,meteohub,2013-07-25 16:16:00,
2013-07-25 11:21:00,88.5,69.8,29.95,SW,236,7.0,12.0,54,0.00,,,0.00,meteohub,2013-07-25 16:21:00,
2013-07-25 11:26:00,88.5,69.3,29.95,SW,229,7.0,12.0,53,0.00,,,0.00,meteohub,2013-07-25 16:26:00,
2013-07-25 11:31:00,88.5,69.8,29.95,SW,227,6.0,12.0,54,0.00,,,0.00,meteohub,2013-07-25 16:31:00,
2013-07-25 11:36:00,89.1,69.6,29.95,West,261,5.0,12.0,53,0.00,,,0.00,meteohub,2013-07-25 16:36:00,
2013-07-25 11:41:00,89.1,69.6,29.95,SW,223,0.0,12.0,53,0.00,,,0.00,meteohub,2013-07-25 16:41:00,
2013-07-25 11:46:00,89.2,69.8,29.95,West,261,8.0,12.0,53,0.00,,,0.00,meteohub,2013-07-25 16:46:00,
2013-07-25 11:51:00,89.4,69.4,29.95,West,265,1.0,12.0,52,0.00,,,0.00,meteohub,2013-07-25 16:51:00,
2013-07-25 11:56:00,89.6,69.6,29.95,West,281,2.0,12.0,52,0.00,,,0.00,meteohub,2013-07-25 16:56:00,
2013-07-25 12:01:00,89.8,69.8,29.95,SW,228,0.0,10.0,52,0.00,,,0.00,meteohub,2013-07-25 17:01:00,
2013-07-25 12:06:00,90.3,70.3,29.95,West,267,1.0,10.0,52,0.00,,,0.00,meteohub,2013-07-25 17:06:00,
2013-07-25 12:11:00,90.7,70.7,29.95,WNW,296,7.0,10.0,52,0.00,,,0.00,meteohub,2013-07-25 17:11:00,
2013-07-25 12:16:00,91.0,70.3,29.95,SW,227,0.0,10.0,51,0.00,,,0.00,meteohub,2013-07-25 17:16:00,
2013-07-25 12:21:00,91.6,70.3,29.95,West,267,0.0,10.0,50,0.00,,,0.00,meteohub,2013-07-25 17:21:00,
2013-07-25 12:26:00,91.9,70.7,29.95,West,265,0.0,10.0,50,0.00,,,0.00,meteohub,2013-07-25 17:26:00,
2013-07-25 12:31:00,92.8,70.3,29.95,West,261,1.0,7.0,48,0.00,,,0.00,meteohub,2013-07-25 17:31:00,
2013-07-25 12:36:00,93.4,70.2,29.95,WSW,237,0.0,7.0,47,0.00,,,0.00,meteohub,2013-07-25 17:36:00,
2013-07-25 12:41:00,93.7,70.5,29.94,SW,217,0.0,7.0,47,0.00,,,0.00,meteohub,2013-07-25 17:41:00,
2013-07-25 12:47:00,94.5,70.5,29.95,SSW,209,0.0,7.0,46,0.00,,,0.00,meteohub,2013-07-25 17:47:00,
2013-07-25 12:52:00,95.2,69.8,29.94,SSW,209,0.0,7.0,44,0.00,,,0.00,meteohub,2013-07-25 17:52:00,
2013-07-25 12:57:00,95.2,69.8,29.94,SSW,209,0.0,3.0,44,0.00,,,0.00,meteohub,2013-07-25 17:57:00,
2013-07-25 13:02:00,95.5,70.2,29.94,SSE,153,0.0,3.0,44,0.00,,,0.00,meteohub,2013-07-25 18:02:00,
2013-07-25 13:07:00,95.7,70.9,29.94,West,273,0.0,3.0,45,0.00,,,0.00,meteohub,2013-07-25 18:07:00,
2013-07-25 13:12:00,95.7,70.3,29.94,SSE,162,2.0,3.0,44,0.00,,,0.00,meteohub,2013-07-25 18:12:00,
2013-07-25 13:17:00,95.5,69.4,29.94,SSE,163,0.0,6.0,43,0.00,,,0.00,meteohub,2013-07-25 18:17:00,
2013-07-25 13:22:00,95.5,70.2,29.93,SSW,201,4.0,6.0,44,0.00,,,0.00,meteohub,2013-07-25 18:22:00,
2013-07-25 13:27:00,95.5,70.9,29.93,SW,216,0.0,6.0,45,0.00,,,0.00,meteohub,2013-07-25 18:27:00,
2013-07-25 13:32:00,95.7,69.6,29.93,SW,231,0.0,6.0,43,0.00,,,0.00,meteohub,2013-07-25 18:32:00,
2013-07-25 13:37:00,95.9,70.5,29.93,WSW,245,3.0,6.0,44,0.00,,,0.00,meteohub,2013-07-25 18:37:00,
2013-07-25 13:42:00,95.7,68.9,29.92,WSW,240,0.0,6.0,42,0.00,,,0.00,meteohub,2013-07-25 18:42:00,
2013-07-25 13:48:00,95.9,69.1,29.92,SSW,196,0.0,6.0,42,0.00,,,0.00,meteohub,2013-07-25 18:48:00,
2013-07-25 13:53:00,95.7,68.2,29.92,South,190,2.0,6.0,41,0.00,,,0.00,meteohub,2013-07-25 18:53:00,
2013-07-25 13:58:00,95.5,68.7,29.92,South,190,0.0,7.0,42,0.00,,,0.00,meteohub,2013-07-25 18:58:00,
2013-07-25 14:03:00,95.5,69.4,29.92,South,190,0.0,7.0,43,0.00,,,0.00,meteohub,2013-07-25 19:03:00,
2013-07-25 14:08:00,96.1,70.7,29.91,WSW,238,3.0,7.0,44,0.00,,,0.00,meteohub,2013-07-25 19:08:00,
2013-07-25 14:13:00,96.3,70.2,29.91,ESE,114,2.0,5.0,43,0.00,,,0.00,meteohub,2013-07-25 19:13:00,
2013-07-25 14:18:00,96.6,70.5,29.91,SSW,210,0.0,5.0,43,0.00,,,0.00,meteohub,2013-07-25 19:18:00,
2013-07-25 14:23:00,97.2,70.2,29.91,SSW,209,0.0,5.0,42,0.00,,,0.00,meteohub,2013-07-25 19:23:00,
2013-07-25 14:28:00,97.3,68.9,29.91,SW,219,0.0,4.0,40,0.00,,,0.00,meteohub,2013-07-25 19:28:00,
2013-07-25 14:33:00,97.3,69.6,29.91,SW,219,0.0,4.0,41,0.00,,,0.00,meteohub,2013-07-25 19:33:00,
2013-07-25 14:38:00,97.7,70.0,29.91,SE,131,9.0,9.0,41,0.00,,,0.00,meteohub,2013-07-25 19:38:00,
2013-07-25 14:43:00,97.9,70.2,29.91,SSE,155,2.0,4.0,41,0.00,,,0.00,meteohub,2013-07-25 19:43:00,
2013-07-25 14:48:00,98.1,70.3,29.91,South,170,0.0,4.0,41,0.00,,,0.00,meteohub,2013-07-25 19:48:00,
2013-07-25 14:53:00,97.5,70.5,29.91,South,184,1.0,9.0,42,0.00,,,0.00,meteohub,2013-07-25 19:53:00,
2013-07-25 14:58:00,97.5,70.5,29.90,North,0,1.0,9.0,42,0.00,,,0.00,meteohub,2013-07-25 19:58:00,
2013-07-25 15:03:00,97.5,69.8,29.90,NNE,22,1.0,7.0,41,0.00,,,0.00,meteohub,2013-07-25 20:03:00,
2013-07-25 15:08:00,97.5,70.5,29.90,NNE,23,0.0,7.0,42,0.00,,,0.00,meteohub,2013-07-25 20:08:00,
2013-07-25 15:13:00,98.1,69.6,29.90,SSW,193,1.0,3.0,40,0.00,,,0.00,meteohub,2013-07-25 20:13:00,
2013-07-25 15:18:00,98.2,69.8,29.90,SSW,210,1.0,3.0,40,0.00,,,0.00,meteohub,2013-07-25 20:18:00,
2013-07-25 15:23:00,98.1,69.6,29.90,ENE,78,1.0,3.0,40,0.00,,,0.00,meteohub,2013-07-25 20:23:00,
2013-07-25 15:28:00,97.2,69.4,29.90,East,84,0.0,8.0,41,0.00,,,0.00,meteohub,2013-07-25 20:28:00,
2013-07-25 15:33:00,96.8,68.5,29.90,SSE,149,1.0,8.0,40,0.00,,,0.00,meteohub,2013-07-25 20:33:00,
2013-07-25 15:38:00,96.4,68.2,29.90,East,85,2.0,8.0,40,0.00,,,0.00,meteohub,2013-07-25 20:38:00,
2013-07-25 15:43:00,95.7,68.2,29.90,ESE,111,5.0,6.0,41,0.00,,,0.00,meteohub,2013-07-25 20:43:00,
2013-07-25 15:48:00,95.5,71.4,29.90,West,273,2.0,6.0,46,0.00,,,0.00,meteohub,2013-07-25 20:48:00,
2013-07-25 15:53:00,94.3,70.9,29.89,NNW,341,0.0,13.0,47,0.00,,,0.00,meteohub,2013-07-25 20:53:00,
2013-07-25 15:58:00,93.6,72.1,29.89,NNW,348,5.0,13.0,50,0.00,,,0.00,meteohub,2013-07-25 20:58:00,
2013-07-25 16:03:00,92.7,72.5,29.89,ENE,69,4.0,16.0,52,0.00,,,0.00,meteohub,2013-07-25 21:03:00,
2013-07-25 16:08:00,92.3,71.6,29.89,ENE,67,7.0,16.0,51,0.00,,,0.00,meteohub,2013-07-25 21:08:00,
2013-07-25 16:13:00,91.9,71.2,29.88,NE,36,2.0,16.0,51,0.00,,,0.00,meteohub,2013-07-25 21:13:00,
2013-07-25 16:18:00,91.8,71.6,29.89,ENE,61,6.0,16.0,52,0.00,,,0.00,meteohub,2013-07-25 21:18:00,
2013-07-25 16:23:00,91.9,71.2,29.88,ENE,71,5.0,16.0,51,0.00,,,0.00,meteohub,2013-07-25 21:23:00,
2013-07-25 16:28:00,91.9,71.8,29.88,ENE,72,1.0,11.0,52,0.00,,,0.00,meteohub,2013-07-25 21:28:00,
2013-07-25 16:33:00,92.5,71.8,29.88,East,87,0.0,11.0,51,0.00,,,0.00,meteohub,2013-07-25 21:33:00,
2013-07-25 16:38:00,92.8,71.4,29.87,NE,45,7.0,11.0,50,0.00,,,0.00,meteohub,2013-07-25 21:38:00,
2013-07-25 16:43:00,93.0,71.6,29.87,SSW,209,0.0,12.0,50,0.00,,,0.00,meteohub,2013-07-25 21:43:00,
2013-07-25 16:48:00,93.7,71.1,29.87,East,88,7.0,12.0,48,0.00,,,0.00,meteohub,2013-07-25 21:48:00,
2013-07-25 16:53:00,93.6,70.9,29.87,ENE,74,1.0,11.0,48,0.00,,,0.00,meteohub,2013-07-25 21:53:00,
2013-07-25 16:58:00,93.6,70.9,29.87,ESE,119,0.0,11.0,48,0.00,,,0.00,meteohub,2013-07-25 21:58:00,
2013-07-25 17:03:00,93.9,70.7,29.87,ENE,69,4.0,10.0,47,0.00,,,0.00,meteohub,2013-07-25 22:03:00,
2013-07-25 17:08:00,94.6,70.7,29.87,East,99,0.0,10.0,46,0.00,,,0.00,meteohub,2013-07-25 22:08:00,
2013-07-25 17:13:00,94.8,71.4,29.86,ENE,61,4.0,8.0,47,0.00,,,0.00,meteohub,2013-07-25 22:13:00,
2013-07-25 17:18:00,93.7,72.3,29.86,NE,34,10.0,10.0,50,0.00,,,0.00,meteohub,2013-07-25 22:18:00,
2013-07-25 17:23:00,93.0,71.1,29.87,ENE,63,1.0,8.0,49,0.00,,,0.00,meteohub,2013-07-25 22:23:00,
2013-07-25 17:28:00,92.5,71.8,29.86,ESE,107,0.0,13.0,51,0.00,,,0.00,meteohub,2013-07-25 22:28:00,
2013-07-25 17:34:00,92.7,71.2,29.86,ENE,58,0.0,13.0,50,0.00,,,0.00,meteohub,2013-07-25 22:34:00,
2013-07-25 17:39:00,92.7,71.2,29.86,ENE,70,0.0,11.0,50,0.00,,,0.00,meteohub,2013-07-25 22:39:00,
2013-07-25 17:44:00,92.7,71.2,29.86,ENE,57,8.0,11.0,50,0.00,,,0.00,meteohub,2013-07-25 22:44:00,
2013-07-25 17:49:00,92.5,71.8,29.86,ESE,111,0.0,11.0,51,0.00,,,0.00,meteohub,2013-07-25 22:49:00,
2013-07-25 17:54:00,92.8,72.0,29.86,SE,139,0.0,13.0,51,0.00,,,0.00,meteohub,2013-07-25 22:54:00,
2013-07-25 17:59:00,93.4,71.4,29.86,ENE,66,6.0,13.0,49,0.00,,,0.00,meteohub,2013-07-25 22:59:00,
2013-07-25 18:04:00,93.4,71.4,29.86,SSW,210,0.0,13.0,49,0.00,,,0.00,meteohub,2013-07-25 23:04:00,
2013-07-25 18:09:00,93.7,71.1,29.86,East,87,0.0,13.0,48,0.00,,,0.00,meteohub,2013-07-25 23:09:00,
2013-07-25 18:14:00,93.7,71.1,29.86,SE,132,6.0,9.0,48,0.00,,,0.00,meteohub,2013-07-25 23:14:00,
2013-07-25 18:19:00,93.6,70.9,29.86,SSE,152,1.0,9.0,48,0.00,,,0.00,meteohub,2013-07-25 23:19:00,
2013-07-25 18:24:00,92.8,70.3,29.86,ESE,119,0.0,9.0,48,0.00,,,0.00,meteohub,2013-07-25 23:24:00,
2013-07-25 18:29:00,92.7,70.7,29.86,ENE,75,1.0,9.0,49,0.00,,,0.00,meteohub,2013-07-25 23:29:00,
2013-07-25 18:34:00,92.7,71.2,29.86,NE,46,6.0,10.0,50,0.00,,,0.00,meteohub,2013-07-25 23:34:00,
2013-07-25 18:39:00,92.8,70.9,29.86,ENE,59,5.0,10.0,49,0.00,,,0.00,meteohub,2013-07-25 23:39:00,
2013-07-25 18:44:00,92.7,70.2,29.86,ENE,67,2.0,10.0,48,0.00,,,0.00,meteohub,2013-07-25 23:44:00,
2013-07-25 18:49:00,92.7,69.4,29.85,SE,133,4.0,10.0,47,0.00,,,0.00,meteohub,2013-07-25 23:49:00,
2013-07-25 18:54:00,92.7,70.7,29.85,East,82,0.0,13.0,49,0.00,,,0.00,meteohub,2013-07-25 23:54:00,
2013-07-25 18:59:00,92.3,70.3,29.85,East,93,7.0,13.0,49,0.00,,,0.00,meteohub,2013-07-25 23:59:00,
2013-07-25 19:04:00,91.9,70.0,29.85,NNE,30,0.0,13.0,49,0.00,,,0.00,meteohub,2013-07-26 00:04:00,
2013-07-25 19:09:00,91.8,70.5,29.85,East,88,8.0,12.0,50,0.00,,,0.00,meteohub,2013-07-26 00:09:00,
2013-07-25 19:14:00,91.8,70.5,29.85,ESE,123,0.0,12.0,50,0.00,,,0.00,meteohub,2013-07-26 00:14:00,
2013-07-25 19:19:00,91.6,70.3,29.85,ENE,67,3.0,9.0,50,0.00,,,0.00,meteohub,2013-07-26 00:19:00,
2013-07-25 19:24:00,91.2,70.0,29.85,ESE,109,0.0,9.0,50,0.00,,,0.00,meteohub,2013-07-26 00:24:00,
2013-07-25 19:29:00,91.0,70.3,29.85,NE,41,4.0,11.0,51,0.00,,,0.00,meteohub,2013-07-26 00:29:00,
2013-07-25 19:34:00,90.9,70.2,29.85,ESE,115,4.0,11.0,51,0.00,,,0.00,meteohub,2013-07-26 00:34:00,
2013-07-25 19:39:00,90.7,70.0,29.85,ENE,62,3.0,7.0,51,0.00,,,0.00,meteohub,2013-07-26 00:39:00,
2013-07-25 19:44:00,90.5,70.0,29.85,East,82,2.0,7.0,51,0.00,,,0.00,meteohub,2013-07-26 00:44:00,
2013-07-25 19:49:00,90.3,69.8,29.85,ENE,77,3.0,11.0,51,0.00,,,0.00,meteohub,2013-07-26 00:49:00,
2013-07-25 19:55:00,90.1,70.2,29.85,NE,53,0.0,11.0,52,0.00,,,0.00,meteohub,2013-07-26 00:55:00,
2013-07-25 20:00:00,90.1,70.2,29.85,SE,132,2.0,11.0,52,0.00,,,0.00,meteohub,2013-07-26 01:00:00,
2013-07-25 20:05:00,90.0,70.5,29.85,SE,141,4.0,11.0,53,0.00,,,0.00,meteohub,2013-07-26 01:05:00,
2013-07-25 20:10:00,89.8,70.9,29.84,East,85,6.0,11.0,54,0.00,,,0.00,meteohub,2013-07-26 01:10:00,
2013-07-25 20:15:00,89.8,70.9,29.84,SE,139,5.0,10.0,54,0.00,,,0.00,meteohub,2013-07-26 01:15:00,
2013-07-25 20:20:00,89.4,70.5,29.84,East,101,0.0,10.0,54,0.00,,,0.00,meteohub,2013-07-26 01:20:00,
2013-07-25 20:25:00,89.2,70.3,29.84,SE,126,6.0,10.0,54,0.00,,,0.00,meteohub,2013-07-26 01:25:00,
2013-07-25 20:30:00,89.1,70.7,29.85,SE,131,2.0,9.0,55,0.00,,,0.00,meteohub,2013-07-26 01:30:00,
2013-07-25 20:35:00,88.9,69.6,29.86,East,85,3.0,9.0,53,0.00,,,0.00,meteohub,2013-07-26 01:35:00,
2013-07-25 20:40:00,88.7,68.7,29.86,ESE,113,0.0,9.0,52,0.00,,,0.00,meteohub,2013-07-26 01:40:00,
2013-07-25 20:45:00,88.5,68.7,29.86,South,175,2.0,9.0,52,0.00,,,0.00,meteohub,2013-07-26 01:45:00,
2013-07-25 20:50:00,88.3,68.5,29.86,East,79,1.0,10.0,52,0.00,,,0.00,meteohub,2013-07-26 01:50:00,
2013-07-25 20:55:00,88.2,68.4,29.86,ESE,112,0.0,10.0,52,0.00,,,0.00,meteohub,2013-07-26 01:55:00,
2013-07-25 21:00:00,88.0,68.7,29.86,ESE,112,0.0,10.0,53,0.00,,,0.00,meteohub,2013-07-26 02:00:00,
2013-07-25 21:05:00,87.6,68.4,29.87,East,86,0.0,10.0,53,0.00,,,0.00,meteohub,2013-07-26 02:05:00,
2013-07-25 21:10:00,87.4,68.7,29.87,ENE,71,3.0,9.0,54,0.00,,,0.00,meteohub,2013-07-26 02:10:00,
2013-07-25 21:15:00,87.4,68.7,29.87,ENE,67,3.0,9.0,54,0.00,,,0.00,meteohub,2013-07-26 02:15:00,
2013-07-25 21:20:00,87.3,68.5,29.88,East,87,1.0,7.0,54,0.00,,,0.00,meteohub,2013-07-26 02:20:00,
2013-07-25 21:25:00,87.3,69.1,29.88,ENE,72,3.0,7.0,55,0.00,,,0.00,meteohub,2013-07-26 02:25:00,
2013-07-25 21:30:00,87.3,69.1,29.88,ENE,74,2.0,12.0,55,0.00,,,0.00,meteohub,2013-07-26 02:30:00,
2013-07-25 21:35:00,87.1,68.9,29.89,ESE,111,0.0,12.0,55,0.00,,,0.00,meteohub,2013-07-26 02:35:00,
2013-07-25 21:40:00,87.1,69.4,29.88,East,89,2.0,8.0,56,0.00,,,0.00,meteohub,2013-07-26 02:40:00,
2013-07-25 21:45:00,86.9,69.3,29.88,ENE,74,0.0,8.0,56,0.00,,,0.00,meteohub,2013-07-26 02:45:00,
2013-07-25 21:50:00,86.9,69.8,29.89,SE,128,0.0,7.0,57,0.00,,,0.00,meteohub,2013-07-26 02:50:00,
2013-07-25 21:55:00,86.7,69.6,29.89,ESE,103,0.0,7.0,57,0.00,,,0.00,meteohub,2013-07-26 02:55:00,
2013-07-25 22:00:00,86.7,69.6,29.89,SSE,147,0.0,7.0,57,0.00,,,0.00,meteohub,2013-07-26 03:00:00,
2013-07-25 22:05:00,86.5,70.0,29.88,ESE,111,1.0,7.0,58,0.00,,,0.00,meteohub,2013-07-26 03:05:00,
2013-07-25 22:10:00,86.5,70.0,29.89,NE,36,2.0,7.0,58,0.00,,,0.00,meteohub,2013-07-26 03:10:00,
2013-07-25 22:15:00,86.5,70.5,29.89,SSE,153,0.0,8.0,59,0.00,,,0.00,meteohub,2013-07-26 03:15:00,
2013-07-25 22:20:00,86.4,70.3,29.89,SE,124,0.0,8.0,59,0.00,,,0.00,meteohub,2013-07-26 03:20:00,
2013-07-25 22:25:00,86.2,70.7,29.89,East,90,0.0,8.0,60,0.00,,,0.00,meteohub,2013-07-26 03:25:00,
2013-07-25 22:30:00,86.0,70.5,29.89,SE,138,0.0,7.0,60,0.00,,,0.00,meteohub,2013-07-26 03:30:00,
2013-07-25 22:35:00,85.8,70.3,29.90,ESE,106,4.0,7.0,60,0.00,,,0.00,meteohub,2013-07-26 03:35:00,
2013-07-25 22:40:00,85.6,70.7,29.89,ESE,117,0.0,7.0,61,0.00,,,0.00,meteohub,2013-07-26 03:40:00,
2013-07-25 22:45:00,85.6,70.7,29.89,ESE,117,0.0,7.0,61,0.00,,,0.00,meteohub,2013-07-26 03:45:00,
2013-07-25 22:50:00,85.5,70.5,29.89,East,98,1.0,9.0,61,0.00,,,0.00,meteohub,2013-07-26 03:50:00,
2013-07-25 22:55:00,85.5,70.5,29.90,ESE,122,0.0,9.0,61,0.00,,,0.00,meteohub,2013-07-26 03:55:00,
2013-07-25 23:00:00,85.3,70.3,29.90,ESE,110,4.0,9.0,61,0.00,,,0.00,meteohub,2013-07-26 04:00:00,
2013-07-25 23:01:00,85.3,70.3,29.90,East,95,4.0,9.0,61,0.00,,,0.00,meteohub,2013-07-26 04:01:00,
2013-07-25 23:02:00,85.3,69.8,29.90,East,98,4.0,9.0,60,0.00,,,0.00,meteohub,2013-07-26 04:02:00,
2013-07-25 23:07:00,85.3,69.8,29.90,ESE,109,4.0,9.0,60,0.00,,,0.00,meteohub,2013-07-26 04:07:00,
2013-07-25 23:13:00,85.3,68.9,29.90,SE,138,6.0,9.0,58,0.00,,,0.00,meteohub,2013-07-26 04:13:00,
2013-07-25 23:18:00,85.5,69.1,29.90,ESE,123,4.0,9.0,58,0.00,,,0.00,meteohub,2013-07-26 04:18:00,
2013-07-25 23:23:00,85.5,68.5,29.90,SE,136,2.0,12.0,57,0.00,,,0.00,meteohub,2013-07-26 04:23:00,
2013-07-25 23:28:00,85.5,68.5,29.89,SE,126,1.0,12.0,57,0.00,,,0.00,meteohub,2013-07-26 04:28:00,
2013-07-25 23:33:00,85.5,68.0,29.90,SSE,160,5.0,11.0,56,0.00,,,0.00,meteohub,2013-07-26 04:33:00,
2013-07-25 23:38:00,85.3,67.8,29.90,South,169,0.0,11.0,56,0.00,,,0.00,meteohub,2013-07-26 04:38:00,
2013-07-25 23:43:00,85.3,67.8,29.90,SE,131,0.0,11.0,56,0.00,,,0.00,meteohub,2013-07-26 04:43:00,
2013-07-25 23:48:00,85.1,67.6,29.90,SE,132,8.0,11.0,56,0.00,,,0.00,meteohub,2013-07-26 04:48:00,
2013-07-25 23:53:00,84.9,67.5,29.90,SE,139,1.0,11.0,56,0.00,,,0.00,meteohub,2013-07-26 04:53:00,
2013-07-25 23:58:00,84.7,67.3,29.90,ESE,117,4.0,11.0,56,0.00,,,0.00,meteohub,2013-07-26 04:58:00,